Location: Corcelles
(46.1547°N, 4.7234°E)
Time: 10:17:21
(UTC+00:00)

Cosmos 1437 Rocket - Pass Details

Date: 14 July 2020
Orbit: 506 x 562 km, 81.2° (Epoch: 05 August)

Event Time Altitude Azimuth Distance (km) Brightness Sun altitude
Rises 02:06:20 0° 339° (NNW) 2,736 6.9 -15.2°
Reaches altitude 10° 02:08:43 10° 328° (NNW) 1,828 5.8 -15.0°
Maximum altitude 02:12:12 29° 268° (W) 1,017 3.8 -14.7°
Enters shadow 02:13:24 24° 237° (WSW) 1,138 3.9 -14.6°
